Weather History for Waukegan, IL

Change the Weather History Date:

Sunday, January 12, 2014

  Actual Average Record
Temperature  
Mean Temperature 34 °F -  
Max Temperature 41 °F 31 °F 57 °F (2005)
Min Temperature 26 °F 16 °F -2 °F (2009)
Degree Days  
Heating Degree Days 31 42  
Month to date heating degree days 628 495  
Since 1 July heating degree days 3516 3044  
Cooling Degree Days 0 0  
Month to date cooling degree days 0 0  
Year to date cooling degree days 0 0  
Moisture  
Dew Point 27 °F    
Average Humidity 78    
Maximum Humidity 92    
Minimum Humidity 64    
Precipitation  
Precipitation 0.00 in 0.04 in 0.56 in (2005)
Month to date precipitation 1.03 0.52  
Year to date precipitation 1.03 0.52  
Sea Level Pressure  
Sea Level Pressure 29.74 in    
Wind  
Wind Speed 14 mph (SSW)    
Max Wind Speed 25 mph    
Max Gust Speed 35 mph    
Visibility 8 miles    
Events      
T = Trace of Precipitation, MM = Missing Value Source: NWS Daily Summary

Daily Weather History Graph

Daily Weather History Graph

Search for Another Location

Airport:

Trip Planner

Search our weather history database for the weather conditions in past years. The results will help you decide how hot, cold, wet, or windy it might be!

Date:

Astronomy

Jan. 12, 2014 Rise Set
Actual Time 7:19 AM CST 4:40 PM CST
Civil Twilight 6:48 AM CST 5:11 PM CST
Nautical Twilight 6:13 AM CST 5:46 PM CST
Astronomical Twilight 5:39 AM CST 6:20 PM CST
Moon 2:08 PM CST (1/12) 4:17 AM CST (1/12)
Length of Visible Light 10h 23m
Length of Day
9h 21m
Waxing Gibbous, 90% of the Moon is Illuminated
Jan 12
Waxing Gibbous
Jan 15
Full
Jan 23
Last Quarter
Jan 30
New
Feb 6
First Quarter

Hourly Weather History & Observations

Time (CST) Temp. Windchill Dew Point Humidity Pressure Visibility Wind Dir Wind Speed Gust Speed Precip Events Conditions
12:52 AM 30.0 °F 21.7 °F 24.1 °F 79% 29.78 in 8.0 mi West 9.2 mph - N/A   Overcast
1:52 AM 28.9 °F 25.2 °F 24.1 °F 82% 29.82 in 9.0 mi WSW 3.5 mph 17.3 mph N/A   Overcast
2:10 AM 28.4 °F 19.7 °F 24.8 °F 86% 29.79 in 9.0 mi SW 9.2 mph 16.1 mph N/A   Overcast
2:52 AM 28.0 °F 20.0 °F 24.1 °F 85% 29.83 in 9.0 mi SW 8.1 mph - N/A   Overcast
3:39 AM 28.4 °F 19.7 °F 24.8 °F 86% 29.79 in 8.0 mi SW 9.2 mph - N/A   Scattered Clouds
3:52 AM 27.0 °F 18.7 °F 24.1 °F 89% 29.83 in 8.0 mi SW 8.1 mph - N/A   Partly Cloudy
4:12 AM 26.6 °F 18.2 °F 24.8 °F 93% 29.79 in 8.0 mi SW 8.1 mph - N/A   Mostly Cloudy
4:21 AM 26.6 °F 19.1 °F 24.8 °F 93% 29.79 in 8.0 mi SW 6.9 mph - N/A   Mostly Cloudy
4:52 AM 27.0 °F 18.0 °F 24.1 °F 89% 29.84 in 9.0 mi SW 9.2 mph - N/A   Mostly Cloudy
5:52 AM 27.0 °F 16.1 °F 24.1 °F 89% 29.84 in 8.0 mi SW 12.7 mph 19.6 mph N/A   Overcast
6:52 AM 26.1 °F 15.6 °F 24.1 °F 92% 29.83 in 7.0 mi SSW 11.5 mph - N/A   Overcast
7:52 AM 27.0 °F 17.3 °F 24.1 °F 89% 29.84 in 4.0 mi SSW 10.4 mph - N/A   Mostly Cloudy
8:05 AM 26.6 °F 16.2 °F 24.8 °F 93% 29.80 in 4.0 mi South 11.5 mph - N/A   Scattered Clouds
8:52 AM 28.9 °F 19.2 °F 26.1 °F 89% 29.86 in 5.0 mi South 11.5 mph - N/A   Partly Cloudy
9:52 AM 30.9 °F 22.2 °F 26.1 °F 82% 29.84 in 6.0 mi South 10.4 mph - N/A   Haze
10:52 AM 34.0 °F 23.8 °F 26.1 °F 73% 29.81 in 7.0 mi South 16.1 mph - N/A   Clear
11:52 AM 35.1 °F 24.8 °F 27.0 °F 72% 29.75 in 9.0 mi South 17.3 mph 23.0 mph N/A   Clear
12:52 PM 36.0 °F 26.3 °F 27.0 °F 70% 29.71 in 10.0 mi South 16.1 mph 24.2 mph N/A   Clear
1:52 PM 37.0 °F 27.0 °F 27.0 °F 67% 29.65 in 10.0 mi South 18.4 mph 28.8 mph N/A   Clear
2:52 PM 39.0 °F 29.3 °F 28.0 °F 65% 29.62 in 10.0 mi South 19.6 mph - N/A   Clear
3:52 PM 39.0 °F 29.0 °F 28.0 °F 65% 29.62 in 10.0 mi South 20.7 mph 27.6 mph N/A   Clear
4:52 PM 39.9 °F 31.8 °F 28.9 °F 65% 29.63 in 10.0 mi South 15.0 mph 28.8 mph N/A   Clear
5:52 PM 39.9 °F 31.1 °F 30.0 °F 68% 29.64 in 10.0 mi South 17.3 mph 29.9 mph N/A   Clear
6:52 PM 39.0 °F 29.9 °F 30.9 °F 73% 29.65 in 10.0 mi South 17.3 mph 25.3 mph N/A   Clear
7:52 PM 39.0 °F 30.6 °F 30.9 °F 73% 29.64 in 10.0 mi South 15.0 mph 25.3 mph N/A   Clear
8:52 PM 39.9 °F 30.5 °F 32.0 °F 73% 29.64 in 10.0 mi SSW 19.6 mph 28.8 mph N/A   Clear
9:52 PM 39.9 °F 30.2 °F 32.0 °F 73% 29.62 in 10.0 mi SSW 20.7 mph 29.9 mph N/A   Clear
10:52 PM 41.0 °F 32.2 °F 32.0 °F 70% 29.60 in 10.0 mi SSW 18.4 mph 27.6 mph N/A   Clear
11:52 PM 41.0 °F 32.5 °F 32.0 °F 70% 29.58 in 10.0 mi SSW 17.3 mph 28.8 mph N/A   Clear